Time,TemperatureF,DewpointF,PressureIn,WindDirection,WindDirectionDegrees,WindSpeedMPH,WindSpeedGustMPH,Humidity,HourlyPrecipIn,Conditions,Clouds,dailyrainin,SoftwareType,DateUTC
2013-01-10 00:03:00,36.6,17.8,29.97,South,176,0.0,1.0,46,0.00,,---,0.00,VWS V14.00,2013-01-10 07:03:00,
2013-01-10 00:08:00,36.3,17.5,29.97,South,176,0.0,1.0,46,0.00,,---,0.00,VWS V14.00,2013-01-10 07:08:00,
2013-01-10 00:13:00,35.9,17.6,29.97,South,178,0.0,0.0,47,0.00,,---,0.00,VWS V14.00,2013-01-10 07:13:00,
2013-01-10 00:18:00,35.6,17.4,29.96,South,188,0.0,3.0,47,0.00,,---,0.00,VWS V14.00,2013-01-10 07:18:00,
2013-01-10 00:23:00,35.6,17.4,29.96,South,184,0.0,0.0,47,0.00,,---,0.00,VWS V14.00,2013-01-10 07:23:00,
2013-01-10 00:28:00,35.5,16.8,29.95,South,184,0.0,2.0,46,0.00,,---,0.00,VWS V14.00,2013-01-10 07:28:00,
2013-01-10 00:33:00,35.4,16.7,29.97,South,185,1.0,1.0,46,0.00,,---,0.00,VWS V14.00,2013-01-10 07:33:00,
2013-01-10 00:38:00,35.4,16.7,29.97,South,185,0.0,0.0,46,0.00,,---,0.00,VWS V14.00,2013-01-10 07:38:00,
2013-01-10 00:43:00,35.3,16.6,29.96,South,185,0.0,0.0,46,0.00,,---,0.00,VWS V14.00,2013-01-10 07:43:00,
2013-01-10 00:48:00,35.2,16.5,29.96,South,184,0.0,0.0,46,0.00,,---,0.00,VWS V14.00,2013-01-10 07:48:00,
2013-01-10 00:53:00,34.8,16.1,29.96,South,185,0.0,1.0,46,0.00,,---,0.00,VWS V14.00,2013-01-10 07:53:00,
2013-01-10 00:58:00,34.6,16.5,29.96,South,184,0.0,2.0,47,0.00,,---,0.00,VWS V14.00,2013-01-10 07:58:00,
2013-01-10 01:03:00,34.9,16.2,29.93,South,184,0.0,0.0,46,0.00,,---,0.00,VWS V14.00,2013-01-10 08:03:00,
2013-01-10 01:08:00,35.0,16.3,29.93,South,185,0.0,1.0,46,0.00,,---,0.00,VWS V14.00,2013-01-10 08:08:00,
2013-01-10 01:13:00,35.4,16.2,29.93,SSW,193,0.0,0.0,45,0.00,,---,0.00,VWS V14.00,2013-01-10 08:13:00,
2013-01-10 01:18:00,35.6,15.9,29.93,SSW,193,0.0,0.0,44,0.00,,---,0.00,VWS V14.00,2013-01-10 08:18:00,
2013-01-10 01:23:00,35.6,15.9,29.93,SSW,192,0.0,0.0,44,0.00,,---,0.00,VWS V14.00,2013-01-10 08:23:00,
2013-01-10 01:28:00,35.5,15.8,29.92,SSW,193,0.0,0.0,44,0.00,,---,0.00,VWS V14.00,2013-01-10 08:28:00,
2013-01-10 01:33:00,35.4,15.7,29.92,SSW,193,0.0,0.0,44,0.00,,---,0.00,VWS V14.00,2013-01-10 08:33:00,
2013-01-10 01:38:00,35.2,15.5,29.91,SSW,192,0.0,0.0,44,0.00,,---,0.00,VWS V14.00,2013-01-10 08:38:00,
2013-01-10 01:43:00,35.0,15.3,29.91,SSW,192,0.0,0.0,44,0.00,,---,0.00,VWS V14.00,2013-01-10 08:43:00,
2013-01-10 01:48:00,34.7,15.0,29.91,SSW,193,0.0,0.0,44,0.00,,---,0.00,VWS V14.00,2013-01-10 08:48:00,
2013-01-10 01:53:00,34.4,15.3,29.92,SSW,193,0.0,0.0,45,0.00,,---,0.00,VWS V14.00,2013-01-10 08:53:00,
2013-01-10 01:58:00,34.4,15.3,29.92,SSW,192,1.0,1.0,45,0.00,,---,0.00,VWS V14.00,2013-01-10 08:58:00,
2013-01-10 02:04:00,34.7,15.0,29.93,SSW,198,0.0,0.0,44,0.00,,---,0.00,VWS V14.00,2013-01-10 09:04:00,
2013-01-10 02:09:00,34.9,15.2,29.93,SSW,196,0.0,0.0,44,0.00,,---,0.00,VWS V14.00,2013-01-10 09:09:00,
2013-01-10 02:14:00,34.8,15.1,29.93,SSW,196,0.0,0.0,44,0.00,,---,0.00,VWS V14.00,2013-01-10 09:14:00,
2013-01-10 02:19:00,34.6,14.9,29.92,SSW,196,0.0,0.0,44,0.00,,---,0.00,VWS V14.00,2013-01-10 09:19:00,
2013-01-10 02:24:00,34.4,14.8,29.94,SSW,196,0.0,0.0,44,0.00,,---,0.00,VWS V14.00,2013-01-10 09:24:00,
2013-01-10 02:30:00,34.2,14.6,29.94,SSW,196,0.0,0.0,44,0.00,,---,0.00,VWS V14.00,2013-01-10 09:30:00,
2013-01-10 02:35:00,34.0,14.4,29.93,SSW,196,0.0,0.0,44,0.00,,---,0.00,VWS V14.00,2013-01-10 09:35:00,
2013-01-10 02:40:00,33.5,14.4,29.93,SSW,196,0.0,0.0,45,0.00,,---,0.00,VWS V14.00,2013-01-10 09:40:00,
2013-01-10 02:45:00,33.2,14.2,29.93,SSW,196,0.0,0.0,45,0.00,,---,0.00,VWS V14.00,2013-01-10 09:45:00,
2013-01-10 02:50:00,32.9,13.9,29.92,SSW,196,0.0,0.0,45,0.00,,---,0.00,VWS V14.00,2013-01-10 09:50:00,
2013-01-10 02:55:00,32.6,14.1,29.92,SSW,196,0.0,0.0,46,0.00,,---,0.00,VWS V14.00,2013-01-10 09:55:00,
2013-01-10 03:00:00,32.4,13.9,29.92,SSW,196,0.0,0.0,46,0.00,,---,0.00,VWS V14.00,2013-01-10 10:00:00,
2013-01-10 03:05:00,32.1,13.7,29.94,SSW,196,0.0,0.0,46,0.00,,---,0.00,VWS V14.00,2013-01-10 10:05:00,
2013-01-10 03:10:00,32.0,13.6,29.94,SSW,196,0.0,0.0,46,0.00,,---,0.00,VWS V14.00,2013-01-10 10:10:00,
2013-01-10 03:15:00,31.9,13.5,29.94,SW,224,1.0,3.0,46,0.00,,---,0.00,VWS V14.00,2013-01-10 10:15:00,
2013-01-10 03:20:00,31.7,13.3,29.94,SW,223,0.0,0.0,46,0.00,,---,0.00,VWS V14.00,2013-01-10 10:20:00,
2013-01-10 03:25:00,31.6,13.2,29.93,SW,224,0.0,0.0,46,0.00,,---,0.00,VWS V14.00,2013-01-10 10:25:00,
2013-01-10 03:30:00,31.5,13.1,29.93,SW,224,0.0,0.0,46,0.00,,---,0.00,VWS V14.00,2013-01-10 10:30:00,
2013-01-10 03:35:00,31.3,12.9,29.94,SW,223,0.0,0.0,46,0.00,,---,0.00,VWS V14.00,2013-01-10 10:35:00,
2013-01-10 03:41:00,31.2,12.4,29.94,SW,222,0.0,3.0,45,0.00,,---,0.00,VWS V14.00,2013-01-10 10:41:00,
2013-01-10 03:47:00,31.9,12.5,29.92,SW,225,0.0,2.0,44,0.00,,---,0.00,VWS V14.00,2013-01-10 10:47:00,
2013-01-10 03:52:00,32.3,12.8,29.92,SW,225,0.0,2.0,44,0.00,,---,0.00,VWS V14.00,2013-01-10 10:52:00,
2013-01-10 03:57:00,32.5,12.5,29.91,SW,223,0.0,0.0,43,0.00,,---,0.00,VWS V14.00,2013-01-10 10:57:00,
2013-01-10 04:03:00,32.4,12.9,29.94,SW,223,0.0,0.0,44,0.00,,---,0.00,VWS V14.00,2013-01-10 11:03:00,
2013-01-10 04:09:00,32.1,13.2,29.94,SW,223,0.0,0.0,45,0.00,,---,0.00,VWS V14.00,2013-01-10 11:09:00,
2013-01-10 04:15:00,31.7,13.3,29.93,SW,223,0.0,0.0,46,0.00,,---,0.00,VWS V14.00,2013-01-10 11:15:00,
2013-01-10 04:20:00,31.4,13.0,29.94,SW,223,0.0,0.0,46,0.00,,---,0.00,VWS V14.00,2013-01-10 11:20:00,
2013-01-10 04:25:00,31.0,12.7,29.94,SW,223,0.0,0.0,46,0.00,,---,0.00,VWS V14.00,2013-01-10 11:25:00,
2013-01-10 04:30:00,30.7,12.4,29.94,SW,223,0.0,0.0,46,0.00,,---,0.00,VWS V14.00,2013-01-10 11:30:00,
2013-01-10 04:35:00,30.4,12.6,29.94,SW,223,0.0,0.0,47,0.00,,---,0.00,VWS V14.00,2013-01-10 11:35:00,
2013-01-10 04:41:00,30.0,12.2,29.94,SW,226,2.0,3.0,47,0.00,,---,0.00,VWS V14.00,2013-01-10 11:41:00,
2013-01-10 04:46:00,29.5,12.2,29.93,SW,226,0.0,0.0,48,0.00,,---,0.00,VWS V14.00,2013-01-10 11:46:00,
2013-01-10 04:51:00,29.3,12.1,29.94,SW,226,0.0,0.0,48,0.00,,---,0.00,VWS V14.00,2013-01-10 11:51:00,
2013-01-10 04:56:00,29.0,12.2,29.94,SW,226,0.0,0.0,49,0.00,,---,0.00,VWS V14.00,2013-01-10 11:56:00,
2013-01-10 05:01:00,28.6,12.3,29.94,SW,227,0.0,0.0,50,0.00,,---,0.00,VWS V14.00,2013-01-10 12:01:00,
2013-01-10 05:07:00,28.3,12.9,29.97,SW,226,1.0,1.0,52,0.00,,---,0.00,VWS V14.00,2013-01-10 12:07:00,
2013-01-10 05:12:00,28.0,13.1,29.97,SW,227,0.0,1.0,53,0.00,,---,0.00,VWS V14.00,2013-01-10 12:12:00,
2013-01-10 05:17:00,27.9,13.0,29.96,SW,226,0.0,0.0,53,0.00,,---,0.00,VWS V14.00,2013-01-10 12:17:00,
2013-01-10 05:22:00,27.6,13.1,29.97,SW,226,0.0,0.0,54,0.00,,---,0.00,VWS V14.00,2013-01-10 12:22:00,
2013-01-10 05:28:00,27.4,13.4,29.97,SW,226,0.0,0.0,55,0.00,,---,0.00,VWS V14.00,2013-01-10 12:28:00,
2013-01-10 05:33:00,27.3,13.3,29.96,SW,226,0.0,0.0,55,0.00,,---,0.00,VWS V14.00,2013-01-10 12:33:00,
2013-01-10 05:38:00,27.2,13.2,29.96,SW,226,0.0,0.0,55,0.00,,---,0.00,VWS V14.00,2013-01-10 12:38:00,
2013-01-10 05:43:00,26.9,13.3,29.96,SW,226,0.0,0.0,56,0.00,,---,0.00,VWS V14.00,2013-01-10 12:43:00,
2013-01-10 05:48:00,26.7,13.5,29.96,SW,226,0.0,0.0,57,0.00,,---,0.00,VWS V14.00,2013-01-10 12:48:00,
2013-01-10 05:53:00,26.5,13.3,29.96,SW,226,0.0,0.0,57,0.00,,---,0.00,VWS V14.00,2013-01-10 12:53:00,
2013-01-10 05:58:00,26.3,13.1,29.98,SW,226,0.0,0.0,57,0.00,,---,0.00,VWS V14.00,2013-01-10 12:58:00,
2013-01-10 06:03:00,26.2,13.4,30.00,SW,226,0.0,0.0,58,0.00,,---,0.00,VWS V14.00,2013-01-10 13:03:00,
2013-01-10 06:08:00,26.0,13.3,30.00,SW,226,0.0,0.0,58,0.00,,---,0.00,VWS V14.00,2013-01-10 13:08:00,
2013-01-10 06:13:00,25.8,13.1,30.00,SW,226,0.0,0.0,58,0.00,,---,0.00,VWS V14.00,2013-01-10 13:13:00,
2013-01-10 06:18:00,25.6,13.3,30.00,SW,226,0.0,0.0,59,0.00,,---,0.00,VWS V14.00,2013-01-10 13:18:00,
2013-01-10 06:23:00,25.3,13.0,30.00,SW,226,0.0,0.0,59,0.00,,---,0.00,VWS V14.00,2013-01-10 13:23:00,
2013-01-10 06:28:00,25.1,13.2,30.01,SW,226,0.0,0.0,60,0.00,,---,0.00,VWS V14.00,2013-01-10 13:28:00,
2013-01-10 06:33:00,25.0,13.1,30.00,SW,226,0.0,0.0,60,0.00,,---,0.00,VWS V14.00,2013-01-10 13:33:00,
2013-01-10 06:38:00,24.8,12.9,30.00,SW,226,0.0,0.0,60,0.00,,---,0.00,VWS V14.00,2013-01-10 13:38:00,
2013-01-10 06:43:00,24.7,12.8,30.00,SW,226,0.0,0.0,60,0.00,,---,0.00,VWS V14.00,2013-01-10 13:43:00,
2013-01-10 06:48:00,24.5,13.0,30.00,SW,226,0.0,0.0,61,0.00,,---,0.00,VWS V14.00,2013-01-10 13:48:00,
2013-01-10 06:53:00,24.4,12.9,30.00,SW,226,0.0,0.0,61,0.00,,---,0.00,VWS V14.00,2013-01-10 13:53:00,
2013-01-10 06:58:00,24.3,12.8,29.99,SW,226,0.0,0.0,61,0.00,,---,0.00,VWS V14.00,2013-01-10 13:58:00,
2013-01-10 07:03:00,24.2,12.7,30.02,SW,226,0.0,0.0,61,0.00,,---,0.00,VWS V14.00,2013-01-10 14:03:00,
2013-01-10 07:09:00,24.0,12.9,30.01,SW,226,0.0,0.0,62,0.00,,---,0.00,VWS V14.00,2013-01-10 14:09:00,
2013-01-10 07:14:00,23.9,13.1,30.01,SW,226,0.0,0.0,63,0.00,,---,0.00,VWS V14.00,2013-01-10 14:14:00,
2013-01-10 07:19:00,23.8,13.1,30.00,SW,226,0.0,0.0,63,0.00,,---,0.00,VWS V14.00,2013-01-10 14:19:00,
2013-01-10 07:24:00,23.7,13.3,30.00,SW,226,0.0,0.0,64,0.00,,---,0.00,VWS V14.00,2013-01-10 14:24:00,
2013-01-10 07:29:00,23.6,13.2,30.00,SW,226,0.0,0.0,64,0.00,,---,0.00,VWS V14.00,2013-01-10 14:29:00,
2013-01-10 07:34:00,23.5,13.1,30.00,SW,226,0.0,0.0,64,0.00,,---,0.00,VWS V14.00,2013-01-10 14:34:00,
2013-01-10 07:39:00,23.5,13.5,30.00,SW,226,0.0,0.0,65,0.00,,---,0.00,VWS V14.00,2013-01-10 14:39:00,
2013-01-10 07:44:00,23.5,13.5,29.99,SW,226,0.0,0.0,65,0.00,,---,0.00,VWS V14.00,2013-01-10 14:44:00,
2013-01-10 07:49:00,23.6,13.9,30.00,SW,226,0.0,0.0,66,0.00,,---,0.00,VWS V14.00,2013-01-10 14:49:00,
2013-01-10 07:54:00,23.6,13.9,29.99,SW,226,0.0,0.0,66,0.00,,---,0.00,VWS V14.00,2013-01-10 14:54:00,
2013-01-10 07:59:00,25.0,16.3,29.99,SW,226,1.0,1.0,69,0.00,,---,0.00,VWS V14.00,2013-01-10 14:59:00,
2013-01-10 08:04:00,26.3,17.2,29.98,SW,227,0.0,0.0,68,0.00,,---,0.00,VWS V14.00,2013-01-10 15:04:00,
2013-01-10 08:09:00,27.0,17.5,29.96,SW,227,0.0,0.0,67,0.00,,---,0.00,VWS V14.00,2013-01-10 15:09:00,
2013-01-10 08:14:00,27.7,17.8,29.96,SW,226,0.0,0.0,66,0.00,,---,0.00,VWS V14.00,2013-01-10 15:14:00,
2013-01-10 08:19:00,28.2,18.3,29.96,SW,226,0.0,0.0,66,0.00,,---,0.00,VWS V14.00,2013-01-10 15:19:00,
2013-01-10 08:24:00,28.9,18.3,29.94,SW,227,0.0,0.0,64,0.00,,---,0.00,VWS V14.00,2013-01-10 15:24:00,
2013-01-10 08:29:00,29.8,18.8,29.93,SW,226,0.0,0.0,63,0.00,,---,0.00,VWS V14.00,2013-01-10 15:29:00,
2013-01-10 08:34:00,30.2,18.8,29.94,SW,226,0.0,0.0,62,0.00,,---,0.00,VWS V14.00,2013-01-10 15:34:00,
2013-01-10 08:39:00,30.5,19.0,29.94,SW,227,0.0,0.0,62,0.00,,---,0.00,VWS V14.00,2013-01-10 15:39:00,
2013-01-10 08:44:00,31.2,19.3,29.92,SW,227,0.0,0.0,61,0.00,,---,0.00,VWS V14.00,2013-01-10 15:44:00,
2013-01-10 08:49:00,31.7,19.0,29.92,SW,227,0.0,0.0,59,0.00,,---,0.00,VWS V14.00,2013-01-10 15:49:00,
2013-01-10 08:54:00,32.0,19.3,29.92,SW,227,0.0,0.0,59,0.00,,---,0.00,VWS V14.00,2013-01-10 15:54:00,
2013-01-10 08:59:00,32.4,19.3,29.91,SW,227,0.0,1.0,58,0.00,,---,0.00,VWS V14.00,2013-01-10 15:59:00,
2013-01-10 09:04:00,33.0,19.9,29.91,SW,228,0.0,1.0,58,0.00,,---,0.00,VWS V14.00,2013-01-10 16:04:00,
2013-01-10 09:09:00,33.7,19.7,29.91,SW,227,0.0,0.0,56,0.00,,---,0.00,VWS V14.00,2013-01-10 16:09:00,
2013-01-10 09:14:00,33.9,20.3,29.90,SW,228,0.0,0.0,57,0.00,,---,0.00,VWS V14.00,2013-01-10 16:14:00,
2013-01-10 09:19:00,34.1,20.1,29.90,SW,228,0.0,0.0,56,0.00,,---,0.00,VWS V14.00,2013-01-10 16:19:00,
2013-01-10 09:24:00,34.1,20.1,29.90,NNW,329,1.0,2.0,56,0.00,,---,0.00,VWS V14.00,2013-01-10 16:24:00,
2013-01-10 09:29:00,33.9,19.9,29.90,NNW,334,0.0,0.0,56,0.00,,---,0.00,VWS V14.00,2013-01-10 16:29:00,
2013-01-10 09:34:00,33.5,19.5,29.90,NNW,335,0.0,1.0,56,0.00,,---,0.00,VWS V14.00,2013-01-10 16:34:00,
2013-01-10 09:39:00,33.7,19.7,29.90,NNW,335,0.0,0.0,56,0.00,,---,0.00,VWS V14.00,2013-01-10 16:39:00,
2013-01-10 09:44:00,34.2,20.1,29.90,NNW,336,0.0,0.0,56,0.00,,---,0.00,VWS V14.00,2013-01-10 16:44:00,
2013-01-10 09:49:00,34.4,19.9,29.89,NNW,336,0.0,0.0,55,0.00,,---,0.00,VWS V14.00,2013-01-10 16:49:00,
2013-01-10 09:54:00,34.6,19.7,29.88,NNW,336,0.0,1.0,54,0.00,,---,0.00,VWS V14.00,2013-01-10 16:54:00,
2013-01-10 09:59:00,34.8,19.9,29.88,NNW,336,1.0,1.0,54,0.00,,---,0.00,VWS V14.00,2013-01-10 16:59:00,
2013-01-10 10:04:00,34.7,19.3,29.87,NNW,340,0.0,2.0,53,0.00,,---,0.00,VWS V14.00,2013-01-10 17:04:00,
2013-01-10 10:09:00,34.4,19.0,29.88,NNW,345,0.0,2.0,53,0.00,,---,0.00,VWS V14.00,2013-01-10 17:09:00,
2013-01-10 10:14:00,34.4,19.0,29.88,North,5,1.0,3.0,53,0.00,,---,0.00,VWS V14.00,2013-01-10 17:14:00,
2013-01-10 10:19:00,34.4,19.0,29.87,North,360,0.0,2.0,53,0.00,,---,0.00,VWS V14.00,2013-01-10 17:19:00,
2013-01-10 10:24:00,34.4,19.0,29.87,North,360,0.0,0.0,53,0.00,,---,0.00,VWS V14.00,2013-01-10 17:24:00,
2013-01-10 10:29:00,34.8,19.0,29.85,North,5,1.0,2.0,52,0.00,,---,0.00,VWS V14.00,2013-01-10 17:29:00,
2013-01-10 10:34:00,35.2,19.8,29.85,North,5,0.0,0.0,53,0.00,,---,0.00,VWS V14.00,2013-01-10 17:34:00,
2013-01-10 10:39:00,35.4,19.5,29.84,North,5,0.0,0.0,52,0.00,,---,0.00,VWS V14.00,2013-01-10 17:39:00,
2013-01-10 10:44:00,35.6,19.7,29.84,North,360,0.0,1.0,52,0.00,,---,0.00,VWS V14.00,2013-01-10 17:44:00,
2013-01-10 10:49:00,36.0,20.1,29.83,North,5,0.0,0.0,52,0.00,,---,0.00,VWS V14.00,2013-01-10 17:49:00,
2013-01-10 10:54:00,36.3,19.9,29.83,North,5,0.0,2.0,51,0.00,,---,0.00,VWS V14.00,2013-01-10 17:54:00,
2013-01-10 10:59:00,36.5,20.1,29.82,North,5,0.0,0.0,51,0.00,,---,0.00,VWS V14.00,2013-01-10 17:59:00,
2013-01-10 11:04:00,36.6,19.7,29.81,North,360,1.0,2.0,50,0.00,,---,0.00,VWS V14.00,2013-01-10 18:04:00,
2013-01-10 11:09:00,36.4,19.5,29.81,North,5,1.0,3.0,50,0.00,,---,0.00,VWS V14.00,2013-01-10 18:09:00,
2013-01-10 11:14:00,36.4,20.0,29.80,North,5,0.0,1.0,51,0.00,,---,0.00,VWS V14.00,2013-01-10 18:14:00,
2013-01-10 11:19:00,36.9,20.5,29.79,North,360,1.0,1.0,51,0.00,,---,0.00,VWS V14.00,2013-01-10 18:19:00,
2013-01-10 11:24:00,36.9,20.5,29.78,North,5,0.0,1.0,51,0.00,,---,0.00,VWS V14.00,2013-01-10 18:24:00,
2013-01-10 11:29:00,37.0,20.6,29.78,North,5,0.0,3.0,51,0.00,,---,0.00,VWS V14.00,2013-01-10 18:29:00,
2013-01-10 11:34:00,36.9,20.5,29.77,NNE,19,0.0,1.0,51,0.00,,---,0.00,VWS V14.00,2013-01-10 18:34:00,
2013-01-10 11:39:00,36.9,20.9,29.77,NNE,18,0.0,0.0,52,0.00,,---,0.00,VWS V14.00,2013-01-10 18:39:00,
2013-01-10 11:44:00,36.9,20.9,29.77,NNE,19,0.0,1.0,52,0.00,,---,0.00,VWS V14.00,2013-01-10 18:44:00,
2013-01-10 11:49:00,37.1,21.1,29.76,NNE,19,0.0,0.0,52,0.00,,---,0.00,VWS V14.00,2013-01-10 18:49:00,
2013-01-10 11:54:00,37.3,21.3,29.76,NNE,18,0.0,0.0,52,0.00,,---,0.00,VWS V14.00,2013-01-10 18:54:00,
2013-01-10 11:59:00,37.2,21.2,29.75,NNE,18,0.0,0.0,52,0.00,,---,0.00,VWS V14.00,2013-01-10 18:59:00,
2013-01-10 12:04:00,37.0,21.0,29.76,NNE,19,0.0,1.0,52,0.00,,---,0.00,VWS V14.00,2013-01-10 19:04:00,
2013-01-10 12:09:00,36.8,20.8,29.75,NNE,19,0.0,1.0,52,0.00,,---,0.00,VWS V14.00,2013-01-10 19:09:00,
2013-01-10 12:14:00,37.0,21.0,29.75,NNE,18,3.0,3.0,52,0.00,,---,0.00,VWS V14.00,2013-01-10 19:14:00,
2013-01-10 12:20:00,36.9,20.5,29.75,NNE,18,0.0,0.0,51,0.00,,---,0.00,VWS V14.00,2013-01-10 19:20:00,
2013-01-10 12:25:00,37.2,21.2,29.74,NNE,19,0.0,0.0,52,0.00,,---,0.00,VWS V14.00,2013-01-10 19:25:00,
2013-01-10 12:30:00,37.3,20.9,29.74,NNE,19,0.0,1.0,51,0.00,,---,0.00,VWS V14.00,2013-01-10 19:30:00,
2013-01-10 12:35:00,37.3,20.9,29.74,NNE,18,0.0,1.0,51,0.00,,---,0.00,VWS V14.00,2013-01-10 19:35:00,
2013-01-10 12:40:00,37.4,20.9,29.75,NNE,18,0.0,0.0,51,0.00,,---,0.00,VWS V14.00,2013-01-10 19:40:00,
2013-01-10 12:45:00,37.3,20.9,29.74,NNE,19,4.0,4.0,51,0.00,,---,0.00,VWS V14.00,2013-01-10 19:45:00,
2013-01-10 12:51:00,37.5,21.0,29.74,NNE,18,0.0,0.0,51,0.00,,---,0.00,VWS V14.00,2013-01-10 19:51:00,
2013-01-10 12:56:00,37.5,21.0,29.73,NE,34,0.0,1.0,51,0.00,,---,0.00,VWS V14.00,2013-01-10 19:56:00,
2013-01-10 13:02:00,37.6,21.1,29.74,NE,34,0.0,0.0,51,0.00,,---,0.00,VWS V14.00,2013-01-10 20:02:00,
2013-01-10 13:07:00,37.8,21.3,29.73,NE,34,0.0,0.0,51,0.00,,---,0.00,VWS V14.00,2013-01-10 20:07:00,
2013-01-10 13:12:00,37.9,21.4,29.73,NE,34,0.0,2.0,51,0.00,,---,0.00,VWS V14.00,2013-01-10 20:12:00,
2013-01-10 13:17:00,37.9,21.4,29.73,NE,34,0.0,0.0,51,0.00,,---,0.00,VWS V14.00,2013-01-10 20:17:00,
2013-01-10 13:22:00,38.3,21.8,29.74,NNE,33,0.0,2.0,51,0.00,,---,0.00,VWS V14.00,2013-01-10 20:22:00,
2013-01-10 13:27:00,38.4,21.4,29.73,NE,34,0.0,2.0,50,0.00,,---,0.00,VWS V14.00,2013-01-10 20:27:00,
2013-01-10 13:32:00,38.6,22.0,29.72,NE,34,0.0,0.0,51,0.00,,---,0.00,VWS V14.00,2013-01-10 20:32:00,
2013-01-10 13:38:00,38.6,21.6,29.72,NE,34,0.0,0.0,50,0.00,,---,0.00,VWS V14.00,2013-01-10 20:38:00,
2013-01-10 13:44:00,38.6,21.6,29.72,NNE,33,0.0,0.0,50,0.00,,---,0.00,VWS V14.00,2013-01-10 20:44:00,
2013-01-10 13:49:00,38.7,21.7,29.72,NNE,33,0.0,0.0,50,0.00,,---,0.00,VWS V14.00,2013-01-10 20:49:00,
2013-01-10 13:54:00,38.7,21.7,29.72,NE,34,0.0,0.0,50,0.00,,---,0.00,VWS V14.00,2013-01-10 20:54:00,
2013-01-10 14:00:00,38.7,21.7,29.72,NE,34,0.0,1.0,50,0.00,,---,0.00,VWS V14.00,2013-01-10 21:00:00,
2013-01-10 14:06:00,38.8,21.8,29.72,NE,34,0.0,1.0,50,0.00,,---,0.00,VWS V14.00,2013-01-10 21:06:00,
2013-01-10 14:12:00,38.8,21.8,29.72,NE,34,0.0,0.0,50,0.00,,---,0.00,VWS V14.00,2013-01-10 21:12:00,
2013-01-10 14:17:00,38.8,21.8,29.72,NNE,33,0.0,1.0,50,0.00,,---,0.00,VWS V14.00,2013-01-10 21:17:00,
2013-01-10 14:23:00,38.8,21.8,29.71,NNE,33,0.0,1.0,50,0.00,,---,0.00,VWS V14.00,2013-01-10 21:23:00,
2013-01-10 14:29:00,38.8,22.2,29.72,NE,34,0.0,1.0,51,0.00,,---,0.00,VWS V14.00,2013-01-10 21:29:00,
2013-01-10 14:35:00,38.8,22.2,29.71,NNE,33,0.0,0.0,51,0.00,,---,0.00,VWS V14.00,2013-01-10 21:35:00,
2013-01-10 14:40:00,38.7,22.1,29.71,NE,34,0.0,0.0,51,0.00,,---,0.00,VWS V14.00,2013-01-10 21:40:00,
2013-01-10 14:45:00,38.7,22.6,29.71,NE,34,0.0,0.0,52,0.00,,---,0.00,VWS V14.00,2013-01-10 21:45:00,
2013-01-10 14:50:00,38.8,22.2,29.71,NNE,33,0.0,0.0,51,0.00,,---,0.00,VWS V14.00,2013-01-10 21:50:00,
2013-01-10 14:55:00,38.8,22.2,29.72,NE,34,0.0,0.0,51,0.00,,---,0.00,VWS V14.00,2013-01-10 21:55:00,
2013-01-10 15:00:00,38.7,22.1,29.72,NE,34,0.0,0.0,51,0.00,,---,0.00,VWS V14.00,2013-01-10 22:00:00,
2013-01-10 15:05:00,38.8,22.2,29.70,NE,34,0.0,0.0,51,0.00,,---,0.00,VWS V14.00,2013-01-10 22:05:00,
2013-01-10 15:10:00,38.8,22.2,29.70,NNE,33,0.0,0.0,51,0.00,,---,0.00,VWS V14.00,2013-01-10 22:10:00,
2013-01-10 15:15:00,38.8,22.2,29.69,NE,34,0.0,0.0,51,0.00,,---,0.00,VWS V14.00,2013-01-10 22:15:00,
2013-01-10 15:20:00,38.9,22.3,29.69,NE,34,0.0,0.0,51,0.00,,---,0.00,VWS V14.00,2013-01-10 22:20:00,
2013-01-10 15:25:00,38.9,22.3,29.69,NNE,33,0.0,0.0,51,0.00,,---,0.00,VWS V14.00,2013-01-10 22:25:00,
2013-01-10 15:30:00,38.9,22.3,29.69,NNE,33,0.0,0.0,51,0.00,,---,0.00,VWS V14.00,2013-01-10 22:30:00,
2013-01-10 15:35:00,38.9,22.3,29.68,NE,34,0.0,0.0,51,0.00,,---,0.00,VWS V14.00,2013-01-10 22:35:00,
2013-01-10 15:40:00,38.9,22.3,29.68,NE,34,0.0,0.0,51,0.00,,---,0.00,VWS V14.00,2013-01-10 22:40:00,
2013-01-10 15:45:00,38.9,22.3,29.68,NNE,33,0.0,0.0,51,0.00,,---,0.00,VWS V14.00,2013-01-10 22:45:00,
2013-01-10 15:50:00,38.8,22.2,29.68,NE,34,0.0,0.0,51,0.00,,---,0.00,VWS V14.00,2013-01-10 22:50:00,
2013-01-10 15:55:00,38.7,22.1,29.68,NE,34,0.0,0.0,51,0.00,,---,0.00,VWS V14.00,2013-01-10 22:55:00,
2013-01-10 16:00:00,38.7,22.1,29.68,NNE,33,0.0,0.0,51,0.00,,---,0.00,VWS V14.00,2013-01-10 23:00:00,
2013-01-10 16:05:00,38.5,22.0,29.70,NNE,33,0.0,0.0,51,0.00,,---,0.00,VWS V14.00,2013-01-10 23:05:00,
2013-01-10 16:11:00,38.4,21.9,29.70,NE,34,0.0,0.0,51,0.00,,---,0.00,VWS V14.00,2013-01-10 23:11:00,
2013-01-10 16:16:00,38.3,21.8,29.71,NE,34,0.0,0.0,51,0.00,,---,0.00,VWS V14.00,2013-01-10 23:16:00,
2013-01-10 16:21:00,38.2,21.7,29.71,NE,34,0.0,0.0,51,0.00,,---,0.00,VWS V14.00,2013-01-10 23:21:00,
2013-01-10 16:26:00,38.1,21.6,29.71,NNE,33,0.0,0.0,51,0.00,,---,0.00,VWS V14.00,2013-01-10 23:26:00,
2013-01-10 16:31:00,37.9,21.4,29.70,NE,34,0.0,0.0,51,0.00,,---,0.00,VWS V14.00,2013-01-10 23:31:00,
2013-01-10 16:36:00,37.6,21.6,29.70,NE,34,0.0,0.0,52,0.00,,---,0.00,VWS V14.00,2013-01-10 23:36:00,
2013-01-10 16:42:00,37.4,21.4,29.70,NE,34,0.0,0.0,52,0.00,,---,0.00,VWS V14.00,2013-01-10 23:42:00,
2013-01-10 16:47:00,37.2,21.2,29.70,NNE,33,0.0,0.0,52,0.00,,---,0.00,VWS V14.00,2013-01-10 23:47:00,
2013-01-10 16:52:00,37.0,21.5,29.70,NE,34,0.0,0.0,53,0.00,,---,0.00,VWS V14.00,2013-01-10 23:52:00,
2013-01-10 16:57:00,36.9,21.4,29.70,NE,34,0.0,0.0,53,0.00,,---,0.00,VWS V14.00,2013-01-10 23:57:00,
2013-01-10 17:02:00,36.6,21.1,29.69,NE,34,0.0,0.0,53,0.00,,---,0.00,VWS V14.00,2013-01-11 00:02:00,
2013-01-10 17:07:00,36.2,21.2,29.71,NNE,33,0.0,0.0,54,0.00,,---,0.00,VWS V14.00,2013-01-11 00:07:00,
2013-01-10 17:12:00,35.9,21.3,29.71,NE,34,0.0,0.0,55,0.00,,---,0.00,VWS V14.00,2013-01-11 00:12:00,
2013-01-10 17:17:00,35.6,21.0,29.71,NE,34,0.0,0.0,55,0.00,,---,0.00,VWS V14.00,2013-01-11 00:17:00,
2013-01-10 17:22:00,35.3,20.8,29.72,NNE,33,0.0,0.0,55,0.00,,---,0.00,VWS V14.00,2013-01-11 00:22:00,
2013-01-10 17:27:00,34.8,20.7,29.72,NE,34,0.0,0.0,56,0.00,,---,0.00,VWS V14.00,2013-01-11 00:27:00,
2013-01-10 17:32:00,34.5,20.9,29.71,NE,34,0.0,0.0,57,0.00,,---,0.00,VWS V14.00,2013-01-11 00:32:00,
2013-01-10 17:37:00,34.4,20.8,29.71,NE,34,0.0,1.0,57,0.00,,---,0.00,VWS V14.00,2013-01-11 00:37:00,
2013-01-10 17:42:00,34.1,20.9,29.71,NNE,33,0.0,0.0,58,0.00,,---,0.00,VWS V14.00,2013-01-11 00:42:00,
2013-01-10 17:47:00,33.8,20.6,29.71,NE,34,0.0,0.0,58,0.00,,---,0.00,VWS V14.00,2013-01-11 00:47:00,
2013-01-10 17:53:00,33.6,20.8,29.71,NE,34,0.0,0.0,59,0.00,,---,0.00,VWS V14.00,2013-01-11 00:53:00,
2013-01-10 17:58:00,33.4,20.6,29.72,NE,34,0.0,0.0,59,0.00,,---,0.00,VWS V14.00,2013-01-11 00:58:00,
2013-01-10 18:03:00,33.3,20.5,29.74,NNE,33,0.0,0.0,59,0.00,,---,0.00,VWS V14.00,2013-01-11 01:03:00,
2013-01-10 18:08:00,33.2,20.4,29.74,NE,34,0.0,0.0,59,0.00,,---,0.00,VWS V14.00,2013-01-11 01:08:00,
2013-01-10 18:13:00,33.0,20.2,29.74,NE,34,0.0,0.0,59,0.00,,---,0.00,VWS V14.00,2013-01-11 01:13:00,
2013-01-10 18:18:00,32.8,20.5,29.74,NE,34,0.0,1.0,60,0.00,,---,0.00,VWS V14.00,2013-01-11 01:18:00,
2013-01-10 18:23:00,32.7,20.8,29.74,NNE,33,0.0,0.0,61,0.00,,---,0.00,VWS V14.00,2013-01-11 01:23:00,
2013-01-10 18:28:00,32.5,20.6,29.74,NE,34,0.0,0.0,61,0.00,,---,0.00,VWS V14.00,2013-01-11 01:28:00,
2013-01-10 18:33:00,32.4,20.5,29.73,NE,34,0.0,0.0,61,0.00,,---,0.00,VWS V14.00,2013-01-11 01:33:00,
2013-01-10 18:38:00,32.4,20.5,29.74,NNE,33,0.0,0.0,61,0.00,,---,0.00,VWS V14.00,2013-01-11 01:38:00,
2013-01-10 18:43:00,32.3,20.4,29.74,NNE,33,0.0,0.0,61,0.00,,---,0.00,VWS V14.00,2013-01-11 01:43:00,
2013-01-10 18:48:00,32.2,20.3,29.73,NE,34,0.0,0.0,61,0.00,,---,0.00,VWS V14.00,2013-01-11 01:48:00,
2013-01-10 18:53:00,31.8,20.3,29.73,NE,34,0.0,0.0,62,0.00,,---,0.00,VWS V14.00,2013-01-11 01:53:00,
2013-01-10 18:58:00,31.6,20.5,29.73,NE,34,0.0,2.0,63,0.00,,---,0.00,VWS V14.00,2013-01-11 01:58:00,
2013-01-10 19:03:00,31.4,20.3,29.73,NNE,33,0.0,0.0,63,0.00,,---,0.00,VWS V14.00,2013-01-11 02:03:00,
2013-01-10 19:08:00,31.4,20.3,29.73,NE,34,0.0,0.0,63,0.00,,---,0.00,VWS V14.00,2013-01-11 02:08:00,
2013-01-10 19:13:00,31.3,20.2,29.73,NNE,33,0.0,1.0,63,0.00,,---,0.00,VWS V14.00,2013-01-11 02:13:00,
2013-01-10 19:18:00,31.1,20.4,29.73,NNE,33,0.0,0.0,64,0.00,,---,0.00,VWS V14.00,2013-01-11 02:18:00,
2013-01-10 19:24:00,30.9,20.2,29.73,NNE,33,0.0,1.0,64,0.00,,---,0.00,VWS V14.00,2013-01-11 02:24:00,
2013-01-10 19:29:00,30.8,20.4,29.73,NE,34,0.0,0.0,65,0.00,,---,0.00,VWS V14.00,2013-01-11 02:29:00,
2013-01-10 19:34:00,30.8,20.4,29.72,NE,34,0.0,1.0,65,0.00,,---,0.00,VWS V14.00,2013-01-11 02:34:00,
2013-01-10 19:39:00,30.8,20.4,29.72,NE,34,0.0,0.0,65,0.00,,---,0.00,VWS V14.00,2013-01-11 02:39:00,
2013-01-10 19:44:00,30.8,20.4,29.72,NE,34,0.0,0.0,65,0.00,,---,0.00,VWS V14.00,2013-01-11 02:44:00,
2013-01-10 19:49:00,30.7,20.3,29.72,NE,34,0.0,0.0,65,0.00,,---,0.00,VWS V14.00,2013-01-11 02:49:00,
2013-01-10 19:54:00,30.7,20.3,29.72,NNE,33,0.0,0.0,65,0.00,,---,0.00,VWS V14.00,2013-01-11 02:54:00,
2013-01-10 19:59:00,30.6,20.2,29.72,NNE,33,0.0,0.0,65,0.00,,---,0.00,VWS V14.00,2013-01-11 02:59:00,
2013-01-10 20:04:00,30.5,20.1,29.67,NE,34,0.0,0.0,65,0.00,,---,0.00,VWS V14.00,2013-01-11 03:04:00,
2013-01-10 20:09:00,30.5,20.1,29.67,NE,34,0.0,0.0,65,0.00,,---,0.00,VWS V14.00,2013-01-11 03:09:00,
2013-01-10 20:14:00,30.4,20.4,29.68,NE,34,0.0,0.0,66,0.00,,---,0.00,VWS V14.00,2013-01-11 03:14:00,
2013-01-10 20:19:00,30.3,20.3,29.68,NNE,33,0.0,0.0,66,0.00,,---,0.00,VWS V14.00,2013-01-11 03:19:00,
2013-01-10 20:24:00,30.3,20.3,29.67,NE,34,0.0,0.0,66,0.00,,---,0.00,VWS V14.00,2013-01-11 03:24:00,
2013-01-10 20:29:00,30.3,20.3,29.67,NE,34,0.0,2.0,66,0.00,,---,0.00,VWS V14.00,2013-01-11 03:29:00,
2013-01-10 20:34:00,30.8,19.3,29.65,NE,42,0.0,2.0,62,0.00,,---,0.00,VWS V14.00,2013-01-11 03:34:00,
2013-01-10 20:39:00,32.3,18.0,29.65,SSW,207,0.0,2.0,55,0.00,,---,0.00,VWS V14.00,2013-01-11 03:39:00,
2013-01-10 20:44:00,33.3,16.7,29.64,SSW,208,0.0,2.0,50,0.00,,---,0.00,VWS V14.00,2013-01-11 03:44:00,
2013-01-10 20:49:00,34.9,15.7,29.64,SW,219,0.0,2.0,45,0.00,,---,0.00,VWS V14.00,2013-01-11 03:49:00,
2013-01-10 20:54:00,36.7,15.2,29.63,South,180,1.0,5.0,41,0.00,,---,0.00,VWS V14.00,2013-01-11 03:54:00,
2013-01-10 20:59:00,38.9,14.9,29.60,SSW,194,0.0,3.0,37,0.00,,---,0.00,VWS V14.00,2013-01-11 03:59:00,
2013-01-10 21:04:00,41.0,14.8,29.59,SSW,208,0.0,3.0,34,0.00,,---,0.00,VWS V14.00,2013-01-11 04:04:00,
2013-01-10 21:09:00,42.5,14.7,29.57,SSW,203,0.0,6.0,32,0.00,,---,0.00,VWS V14.00,2013-01-11 04:09:00,
2013-01-10 21:14:00,43.6,15.7,29.56,South,184,4.0,10.0,32,0.00,,---,0.00,VWS V14.00,2013-01-11 04:14:00,
2013-01-10 21:19:00,44.2,15.5,29.56,South,176,3.0,5.0,31,0.00,,---,0.00,VWS V14.00,2013-01-11 04:19:00,
2013-01-10 21:24:00,44.6,15.1,29.55,SSE,164,5.0,6.0,30,0.00,,---,0.00,VWS V14.00,2013-01-11 04:24:00,
2013-01-10 21:29:00,45.0,15.4,29.54,SSW,209,3.0,10.0,30,0.00,,---,0.00,VWS V14.00,2013-01-11 04:29:00,
2013-01-10 21:34:00,45.4,15.8,29.54,South,188,2.0,11.0,30,0.00,,---,0.00,VWS V14.00,2013-01-11 04:34:00,
2013-01-10 21:39:00,45.6,16.0,29.54,SW,220,4.0,10.0,30,0.00,,---,0.00,VWS V14.00,2013-01-11 04:39:00,
2013-01-10 21:44:00,45.7,16.1,29.54,South,172,4.0,5.0,30,0.00,,---,0.00,VWS V14.00,2013-01-11 04:44:00,
2013-01-10 21:49:00,45.6,16.0,29.54,South,187,2.0,4.0,30,0.00,,---,0.00,VWS V14.00,2013-01-11 04:49:00,
2013-01-10 21:54:00,45.7,16.1,29.54,SSE,159,6.0,11.0,30,0.00,,---,0.00,VWS V14.00,2013-01-11 04:54:00,
2013-01-10 22:02:00,45.8,16.9,29.52,SSW,194,2.0,4.0,31,0.00,,---,0.00,VWS V14.00,2013-01-11 05:02:00,
2013-01-10 22:03:00,45.8,16.1,29.53,SSW,211,5.0,7.0,30,0.00,,---,0.00,VWS V14.00,2013-01-11 05:03:00,
2013-01-10 22:04:00,45.8,16.9,29.53,South,171,4.0,9.0,31,0.00,,---,0.00,VWS V14.00,2013-01-11 05:04:00,
2013-01-10 22:09:00,45.8,16.9,29.52,South,190,4.0,5.0,31,0.00,,---,0.00,VWS V14.00,2013-01-11 05:09:00,
2013-01-10 22:10:00,45.8,16.9,29.52,South,190,1.0,4.0,31,0.00,,---,0.00,VWS V14.00,2013-01-11 05:10:00,
2013-01-10 22:15:00,45.5,15.9,29.52,South,188,3.0,11.0,30,0.00,,---,0.00,VWS V14.00,2013-01-11 05:15:00,
2013-01-10 22:20:00,45.4,16.5,29.51,South,177,5.0,6.0,31,0.00,,---,0.00,VWS V14.00,2013-01-11 05:20:00,
2013-01-10 22:25:00,45.2,16.4,29.50,South,190,0.0,3.0,31,0.00,,---,0.00,VWS V14.00,2013-01-11 05:25:00,
2013-01-10 22:30:00,45.0,16.9,29.50,South,173,2.0,5.0,32,0.00,,---,0.00,VWS V14.00,2013-01-11 05:30:00,
2013-01-10 22:35:00,45.0,16.9,29.49,South,170,3.0,4.0,32,0.00,,---,0.00,VWS V14.00,2013-01-11 05:35:00,
2013-01-10 22:40:00,44.9,17.6,29.50,SSE,155,5.0,6.0,33,0.00,,---,0.00,VWS V14.00,2013-01-11 05:40:00,
2013-01-10 22:45:00,44.9,18.2,29.49,SE,146,2.0,11.0,34,0.00,,---,0.00,VWS V14.00,2013-01-11 05:45:00,
2013-01-10 22:50:00,45.2,18.5,29.50,SSW,196,4.0,10.0,34,0.00,,---,0.00,VWS V14.00,2013-01-11 05:50:00,
2013-01-10 22:55:00,45.3,18.6,29.50,SW,215,3.0,7.0,34,0.00,,---,0.00,VWS V14.00,2013-01-11 05:55:00,
2013-01-10 23:00:00,45.2,18.5,29.50,South,188,4.0,10.0,34,0.00,,---,0.00,VWS V14.00,2013-01-11 06:00:00,
2013-01-10 23:06:00,45.2,18.5,29.50,SSW,205,9.0,9.0,34,0.00,,---,0.00,VWS V14.00,2013-01-11 06:06:00,
2013-01-10 23:11:00,45.1,18.4,29.50,SSW,200,2.0,11.0,34,0.00,,---,0.00,VWS V14.00,2013-01-11 06:11:00,
2013-01-10 23:16:00,45.0,18.3,29.50,SSW,204,5.0,6.0,34,0.00,,---,0.00,VWS V14.00,2013-01-11 06:16:00,
2013-01-10 23:21:00,45.0,18.3,29.50,SSW,198,0.0,7.0,34,0.00,,---,0.00,VWS V14.00,2013-01-11 06:21:00,
2013-01-10 23:26:00,45.0,19.0,29.50,South,180,1.0,4.0,35,0.00,,---,0.00,VWS V14.00,2013-01-11 06:26:00,
2013-01-10 23:31:00,45.0,19.0,29.50,South,190,4.0,11.0,35,0.00,,---,0.00,VWS V14.00,2013-01-11 06:31:00,
2013-01-10 23:36:00,45.0,19.0,29.50,South,174,3.0,11.0,35,0.00,,---,0.00,VWS V14.00,2013-01-11 06:36:00,
2013-01-10 23:41:00,44.8,18.8,29.50,SW,214,1.0,9.0,35,0.00,,---,0.00,VWS V14.00,2013-01-11 06:41:00,
2013-01-10 23:46:00,44.7,18.8,29.50,South,180,2.0,6.0,35,0.00,,---,0.00,VWS V14.00,2013-01-11 06:46:00,
2013-01-10 23:52:00,44.6,18.7,29.51,South,179,3.0,13.0,35,0.00,,---,0.00,VWS V14.00,2013-01-11 06:52:00,
2013-01-10 23:58:00,44.6,18.7,29.52,South,191,1.0,5.0,35,0.00,,---,0.00,VWS V14.00,2013-01-11 06:58:00,